Humidity-temperature Sensor

Selected Measurement Type: Relative Humidity

 
Relative Humidity [%]     6 entries per hour
Showing data from 6/7/2017 (00:00:00 Z) to 6/6/2017 (00:01:00 Z)
Previous Next [ Day | 3-Days | 7-Days ]
First Last
Prev [ Day | 3-Days | 7-Days ] Next
First Last

Start Time:     :
End Time:     :     
Time (in GMT) :00 :50 :40 :30 :20 :10
Previous Next [ Day | 3-Days | 7-Days ]
First Last
Prev [ Day | 3-Days | 7-Days ] Next
First Last


123 => good data
MM => data is determined as missing
-- => data not received/configured
Back to Top Back to Top
6/7/2017 00:00 to 23:10 -- -- -- -- -- --
6/6/2017 23:00 to 22:10 93.27 93.35 93.13 93.23 93.79 93.89
6/6/2017 22:00 to 21:10 94.34 94.16 94.30 94.04 94.08 94.38
6/6/2017 21:00 to 20:10 94.06 93.61 94.18 94.56 94.72 94.44
6/6/2017 20:00 to 19:10 94.40 94.48 94.72 94.38 94.54 94.48
6/6/2017 19:00 to 18:10 94.44 94.50 94.10 94.18 93.43 92.93
6/6/2017 18:00 to 17:10 93.35 93.49 93.45 93.69 93.43 93.71
6/6/2017 17:00 to 16:10 93.81 93.05 93.03 93.09 93.21 93.53
6/6/2017 16:00 to 15:10 93.89 93.77 93.77 93.87 94.06 93.94
6/6/2017 15:00 to 14:10 93.69 93.29 93.21 92.81 92.67 92.97
6/6/2017 14:00 to 13:10 93.33 93.39 93.71 94.30 94.30 93.85
6/6/2017 13:00 to 12:10 93.25 92.65 91.79 91.48 92.13 92.17
6/6/2017 12:00 to 11:10 93.05 92.61 92.85 92.29 92.33 92.63
6/6/2017 11:00 to 10:10 92.21 92.57 92.49 92.51 92.83 92.21
6/6/2017 10:00 to 9:10 91.91 92.51 93.25 93.37 93.55 93.23
6/6/2017 09:00 to 8:10 93.67 93.17 92.63 93.09 93.29 92.63
6/6/2017 08:00 to 7:10 92.77 92.07 92.49 92.31 92.69 92.37
6/6/2017 07:00 to 6:10 92.19 92.85 92.49 92.17 91.55 91.95
6/6/2017 06:00 to 5:10 92.15 92.29 91.85 92.25 91.93 91.91
6/6/2017 05:00 to 4:10 91.71 92.03 91.75 91.36 91.34 91.10
6/6/2017 04:00 to 3:10 91.40 91.38 90.92 91.73 91.73 91.71
6/6/2017 03:00 to 2:10 92.01 91.04 90.26 90.70 90.72 90.10
6/6/2017 02:00 to 1:10 89.30 90.80 90.38 90.22 89.80 89.96
6/6/2017 01:00 to 0:10 90.28 89.84 89.72 89.28 89.76 90.58